Location: Castelbiague
(43.0361°N, 0.9246°E)
Time: 16:32:21
(UTC+00:00)

Cosmos 1626 - Pass Details

Date: 26 October 2021
Orbit: 487 x 492 km, 82.5° (Epoch: 30 November)

Event Time Altitude Azimuth Distance (km) Brightness Sun altitude
Exits shadow 04:33:52 36° 345° (NNW) 798 3.0 -20.6°
Drops below altitude 10° 04:36:16 10° 1° (N) 1,697 4.8 -20.2°
Sets 04:38:24 0° 5° (N) 2,584 5.8 -19.8°
